Regional Weather Roundup
Issued by NWS New Orleans/Baton Rouge, LA

Home | Current Version | Previous Version | Graphics & Text | Print | Product List | Glossary On
Versions: 1 2 3 4 5 6 7 8 9 10 11 12 13 14 15 16 17 18 19 20 21 22 23 24 25 26 27 28 29 30 31 32 33 34 35 36 37 38 39 40 41 42 43 44 45 46 47 48 49 50
772
ASUS44 KLIX 050201
RWRLIX
NEW ORLEANS REGIONAL WEATHER ROUNDUP
NATIONAL WEATHER SERVICE NEW ORLEANS LA
800 PM CST WED MAR 04 2015

NOTE: "FAIR" INDICATES FEW OR NO CLOUDS BELOW 12,000 FEET WITH NO
      SIGNIFICANT WEATHER AND/OR OBSTRUCTIONS TO VISIBILITY.
      SKY/WX - SKY CONDITION AND SIGNIFICANT WEATHER.
      TMP - AIR TEMPERATURE.     DP    - DEWPOINT TEMPERATURE.
      RH  - RELATIVE HUMIDITY.   PRES  - PRESSURE.
      HI  - HEAT INDEX.          WCI   - WIND CHILL INDEX.

*  THESE STATIONS ARE NOT NWS OR FAA STATIONS AND ARE NOT UNDER
   NWS QUALITY CONTROL.

LAZ038-040-048-061>063-065>067-069-050300-
SOUTHEAST LOUISIANA

CITY           SKY/WX    TMP DP  RH WIND       PRES   REMARKS
N.O. AUDUBON     N/A     73  73 100 MISG        N/A
N.O. INTL ARPT PTCLDY    73  68  84 S10       29.92R
N.O. LAKEFRONT PTCLDY    76  68  76 S12       29.93R
SLIDELL        CLOUDY    72  69  90 S5        29.92R
BATON ROUGE    CLOUDY    75  67  76 S10       29.89R
BOOTHVILLE     PTCLDY    71  70  96 S7        29.95R
BELLE CHASSE   MOCLDY    73  68  84 S6        29.92R
BOGALUSA*        N/A     76  66  71 S9        29.92R
GALLIANO*      PTCLDY    75  71  86 S12G17    29.93R
NEW ROADS*     CLOUDY    74  68  80 S10       29.89R
GONZALES*      NOT AVBL
HAMMOND*       NOT AVBL
HOUMA*         MOCLDY    73  71  93 S6        29.92R
PORT FOURCHON* MOCLDY    73  72  94 S5        29.97R FOG

$$

MSZ070-080>082-050300-
SOUTHERN MISSISSIPPI

CITY           SKY/WX    TMP DP  RH WIND       PRES   REMARKS
MCCOMB         PTCLDY    73  65  75 S10       29.89R
GULFPORT       CLOUDY    67  65  93 S7        29.93R
BILOXI         LGT RAIN  66  66 100 S9        29.93R
PASCAGOULA     CLOUDY    71  69  93 S9        29.94R
STENNIS ARPT*  PTCLDY    66  63  88 S3        29.93R

$$

COASTAL OBSERVATIONS
LAKE AND NEARSHORE STATIONS

STATION/POSITION TIME  TEMP    WIND        PRES    WAVE
                       AIR SEA DIR/SP/G            HT/PER
                 (UTC) (F)     (DEG/KT/KT) (MB)    (FT/S)
PASCAGOULA       0121   68     170/ 12/ 16 1013.3
WAVELAND YACHT   0121   67 59  170/  9/ 12 1012.9
GRAND ISLE       0121   70 66  160/  5/  8 1013.8
SOUTHWEST PASS   0121   69 47  180/ 13/ 14 1013.8
NEW CANAL        0121   75     200/  7/  9 1013.2
SHELL BEACH      0121   72 63  160/  6/  7 1013.2

OFFSHORE STATIONS

STATION/POSITION TIME  TEMP    WIND        PRES    WAVE
                       AIR SEA DIR/SP/G            HT/PER
                 (UTC) (F)     (DEG/KT/KT) (MB)    (FT/S)
64 S DAUPHIN ISL 0109   73 72  160/ 10/ 12 1014.7    4/ 7

$$




USA.gov is the U.S. government's official web portal to all federal, state and local government web resources and services.